sat.trackr.live / text

‹ back to catalog

ONEWEB-0524

NORAD 54142 · 2022-138AF

PAYLOAD ACTIVE UNKNOWN

§ Identity

Operator
Country
UK
Launch date
2022-10-22
Launch site
SRILR
Launch vehicle
Mass (kg)
RCS (m²)

Purposes: comms

External: N2YO · Heavens-Above · Gunter

§ Orbital elements

Epoch: 2026-05-24T21:55:16.336128Z

Period
109.03 min
Inclination
87.9176°
Eccentricity
0.0001670
Mean motion
13.20770861 rev/d
Perigee alt
1,180.5 km
Apogee alt
1,183.0 km
Semi-major
7,559.9 km
B*
-5.4346e-4
RAAN
279.0774°
Arg perigee
127.6217°
Mean anomaly
232.5068°
Rev number
17,623

§ Raw data

ONEWEB-05241 54142U 22138AF  26144.91338352 -.00000208  00000+0 -54346-3 0  99992 54142  87.9176 279.0774 0001670 127.6217 232.5068 13.20770861176232

JSON: /api/v1/satellites/54142 · /tle

For live sub-satellite position, see the globe view (requires WebGL).

§ Visibility from observer

Set your observer location to see the next 7 days of passes ≥ 10°. The values pass through the URL so the page stays shareable.

No JS? Fill the form by hand. The geolocation button needs JavaScript.